EW4090 Weather Reports


Display with metric or nautical units.
time (UTC)temp
F
wind
direction
speed
MPH
gust
MPH
rain 1hr
in
rain 24hr
in
rain mn
in
humidity
%
barometer
mb
20210921051306 0 222 5.0 11.0 0.00 0.00 0.00 1012.4
20210921050808 0 186 5.0 11.0 0.00 0.00 0.00 1012.4
20210921050304 0 199 5.0 13.0 0.00 0.00 0.00 1012.4
20210921045803 0 172 5.0 13.0 0.00 0.00 0.00 1012.5
20210921045310 0 167 5.0 11.0 0.00 0.00 0.00 1012.4
20210921044804 0 206 6.0 11.0 0.00 0.00 0.00 1012.3
20210921044259 0 178 6.0 12.0 0.00 0.00 0.00 1012.4
20210921043800 0 173 6.0 12.0 0.00 0.00 0.00 1012.4
20210921043259 0 187 6.0 10.0 0.00 0.00 0.00 1012.4
20210921042759 0 207 6.0 10.0 0.00 0.00 0.00 1012.5
20210921042300 0 174 6.0 10.0 0.00 0.00 0.00 1012.5
20210921041759 0 185 5.0 10.0 0.00 0.00 0.00 1012.5
20210921041300 0 183 5.0 10.0 0.00 0.00 0.00 1012.6
20210921040756 0 178 5.0 10.0 0.00 0.00 0.00 1012.6
20210921040255 0 178 4.0 10.0 0.00 0.00 0.00 1012.6
20210921035755 0 165 5.0 9.0 0.00 0.00 0.00 1012.5
20210921035255 0 171 5.0 10.0 0.00 0.00 0.00 1012.5
20210921034757 0 152 5.0 10.0 0.00 0.00 0.00 1012.4
20210921034252 0 168 5.0 10.0 0.00 0.00 0.00 1012.4
20210921033755 0 186 5.0 10.0 0.00 0.00 0.00 1012.3
20210921033253 0 186 5.0 10.0 0.00 0.00 0.00 1012.3
20210921032753 0 185 5.0 12.0 0.00 0.00 0.00 1012.3
20210921032252 0 197 6.0 13.0 0.00 0.00 0.00 1012.3
20210921031751 0 173 5.0 13.0 0.00 0.00 0.00 1012.3
20210921031253 0 203 6.0 11.0 0.00 0.00 0.00 1012.2
20210921030747 0 167 6.0 11.0 0.00 0.00 0.00 1012.2
20210921030240 0 163 5.0 10.0 0.00 0.00 0.00 1012.2
20210921025740 0 199 4.0 9.0 0.00 0.00 0.00 1012.2
20210921025240 0 157 5.0 9.0 0.00 0.00 0.00 1012.2
20210921024740 0 136 5.0 11.0 0.00 0.00 0.00 1012.1
20210921024238 0 181 5.0 11.0 0.00 0.00 0.00 1011.9
20210921023742 0 207 5.0 9.0 0.00 0.00 0.00 1011.8
20210921023239 0 193 4.0 9.0 0.00 0.00 0.00 1011.7
20210921022738 0 184 4.0 9.0 0.00 0.00 0.00 1011.7
20210921022238 0 169 4.0 9.0 0.00 0.00 0.00 1011.6
20210921021742 0 214 4.0 9.0 0.00 0.00 0.00 1011.5
20210921021240 0 195 3.0 6.0 0.00 0.00 0.00 1011.5
20210921020737 0 170 3.0 5.0 0.00 0.00 0.00 1011.3
20210921020234 0 174 3.0 7.0 0.00 0.00 0.00 1011.4
20210921015736 0 163 3.0 7.0 0.00 0.00 0.00 1011.4
20210921015232 0 174 4.0 6.0 0.00 0.00 0.00 1011.3
20210921014730 0 171 4.0 6.0 0.00 0.00 0.00 1011.3
20210921014223 0 170 4.0 6.0 0.00 0.00 0.00 1011.3
20210921013717 0 168 4.0 6.0 0.00 0.00 0.00 1011.2
20210921013215 0 155 4.0 6.0 0.00 0.00 0.00 1011.3
20210921012712 0 172 4.0 7.0 0.00 0.00 0.00 1011.2
20210921012213 0 174 4.0 9.0 0.00 0.00 0.00 1011.1
20210921011712 0 169 5.0 10.0 0.00 0.00 0.00 1011.0
20210921011212 0 163 5.0 10.0 0.00 0.00 0.00 1010.9
20210921010713 0 166 5.0 10.0 0.00 0.00 0.00 1010.9
20210921010212 0 157 4.0 9.0 0.00 0.00 0.00 1010.8
20210921005713 0 191 4.0 9.0 0.00 0.00 0.00 1010.8
20210921005212 0 170 4.0 9.0 0.00 0.00 0.00 1010.8
20210921004712 0 160 3.0 6.0 0.00 0.00 0.00 1010.7
20210921004212 0 184 3.0 8.0 0.00 0.00 0.00 1010.6
20210921003711 0 174 4.0 8.0 0.00 0.00 0.00 1010.7
20210921003218 0 182 4.0 9.0 0.00 0.00 0.00 1010.6
20210921002710 0 163 4.0 11.0 0.00 0.00 0.00 1010.6
20210921002211 0 183 5.0 12.0 0.00 0.00 0.00 1010.6
20210921001705 0 182 5.0 12.0 0.00 0.00 0.00 1010.6
20210921001207 0 203 7.0 12.0 0.00 0.00 0.00 1010.5
20210921000702 0 194 6.0 12.0 0.00 0.00 0.00 1010.5
20210921000204 0 180 5.0 11.0 0.00 0.00 0.00 1010.4
20210920235702 0 145 6.0 11.0 0.00 0.00 0.00 1010.3
20210920235206 0 184 6.0 13.0 0.00 0.00 0.00 1010.3
20210920234704 0 166 6.0 13.0 0.00 0.00 0.00 1010.3
20210920234203 0 170 7.0 13.0 0.00 0.00 0.00 1010.3
20210920233703 0 164 7.0 13.0 0.00 0.00 0.00 1010.3
20210920233203 0 169 7.0 14.0 0.00 0.00 0.00 1010.3
20210920232702 0 178 7.0 14.0 0.00 0.00 0.00 1010.4
20210920232203 0 195 7.0 16.0 0.00 0.00 0.00 1010.4
20210920231702 0 209 8.0 16.0 0.00 0.00 0.00 1010.4
20210920231204 0 146 8.0 18.0 0.00 0.00 0.00 1010.3
20210920230704 0 179 8.0 18.0 0.00 0.00 0.00 1010.4
20210920230204 0 202 8.0 16.0 0.00 0.00 0.00 1010.3
20210920225703 0 201 8.0 16.0 0.00 0.00 0.00 1010.3
20210920225202 0 166 8.0 15.0 0.00 0.00 0.00 1010.2
20210920224703 0 205 8.0 18.0 0.00 0.00 0.00 1010.2
20210920224202 0 151 7.0 18.0 0.00 0.00 0.00 1010.2
20210920223702 0 175 7.0 15.0 0.00 0.00 0.00 1010.1
20210920223202 0 199 7.0 13.0 0.00 0.00 0.00 1010.1
20210920222702 0 134 7.0 13.0 0.00 0.00 0.00 1010.0
20210920222202 0 183 8.0 14.0 0.00 0.00 0.00 1010.0
20210920221702 0 184 9.0 14.0 0.00 0.00 0.00 1010.0
20210920221202 0 169 8.0 16.0 0.00 0.00 0.00 1010.1
20210920220702 0 188 9.0 18.0 0.00 0.00 0.00 1010.1
20210920220202 0 192 9.0 18.0 0.00 0.00 0.00 1010.1
20210920215701 0 173 9.0 18.0 0.00 0.00 0.00 1010.1
20210920215202 0 163 8.0 17.0 0.00 0.00 0.00 1010.1
20210920214703 0 168 8.0 17.0 0.00 0.00 0.00 1010.1
20210920214203 0 167 9.0 17.0 0.00 0.00 0.00 1010.1
20210920213703 0 234 9.0 17.0 0.00 0.00 0.00 1010.1
20210920213202 0 199 7.0 16.0 0.00 0.00 0.00 1010.0
20210920212703 0 181 8.0 14.0 0.00 0.00 0.00 1010.0
20210920212218 0 199 9.0 18.0 0.00 0.00 0.00 1010.0
20210920211703 0 174 8.0 18.0 0.00 0.00 0.00 1010.1
20210920211202 0 197 9.0 20.0 0.00 0.00 0.00 1010.0
20210920210708 0 209 10.0 20.0 0.00 0.00 0.00 1010.0
20210920210203 0 193 9.0 18.0 0.00 0.00 0.00 1010.1
20210920205715 0 179 10.0 18.0 0.00 0.00 0.00 1010.0
20210920205202 0 171 11.0 18.0 0.00 0.00 0.00 1010.1
20210920204701 0 157 10.0 18.0 0.00 0.00 0.00 1010.2
20210920204201 0 184 10.0 19.0 0.00 0.00 0.00 1010.1
20210920203714 0 175 10.0 19.0 0.00 0.00 0.00 1010.2
20210920203202 0 192 9.0 16.0 0.00 0.00 0.00 1010.2
20210920202702 0 172 8.0 15.0 0.00 0.00 0.00 1010.3
20210920202203 0 175 7.0 15.0 0.00 0.00 0.00 1010.4
20210920201706 0 239 7.0 14.0 0.00 0.00 0.00 1010.4
20210920201208 0 151 8.0 15.0 0.00 0.00 0.00 1010.5
20210920200708 0 175 9.0 16.0 0.00 0.00 0.00 1010.5
20210920200203 0 161 9.0 17.0 0.00 0.00 0.00 1010.5
20210920195706 0 153 8.0 17.0 0.00 0.00 0.00 1010.7
20210920195201 0 154 8.0 16.0 0.00 0.00 0.00 1010.7
20210920194702 0 134 10.0 18.0 0.00 0.00 0.00 1010.7
20210920194203 0 189 10.0 21.0 0.00 0.00 0.00 1010.8
20210920193714 0 190 9.0 21.0 0.00 0.00 0.00 1010.9
20210920193202 0 182 10.0 17.0 0.00 0.00 0.00 1010.9
20210920192703 0 155 10.0 17.0 0.00 0.00 0.00 1011.0
20210920192201 0 182 10.0 21.0 0.00 0.00 0.00 1011.0
20210920191702 0 165 11.0 21.0 0.00 0.00 0.00 1011.1
20210920191209 0 201 12.0 21.0 0.00 0.00 0.00 1011.1
20210920190650 0 209 11.0 23.0 0.00 0.00 0.00 1011.1
20210920190157 0 152 10.0 23.0 0.00 0.00 0.00 1011.2
20210920185652 0 174 10.0 19.0 0.00 0.00 0.00 1011.3
20210920185157 0 171 10.0 18.0 0.00 0.00 0.00 1011.3
20210920184640 0 174 9.0 18.0 0.00 0.00 0.00 1011.3
20210920184139 0 163 10.0 18.0 0.00 0.00 0.00 1011.3
20210920183639 0 146 11.0 18.0 0.00 0.00 0.00 1011.4
20210920183149 0 157 10.0 16.0 0.00 0.00 0.00 1011.5
20210920182637 0 141 9.0 17.0 0.00 0.00 0.00 1011.5
20210920182136 0 188 10.0 17.0 0.00 0.00 0.00 1011.5
20210920181633 0 153 10.0 18.0 0.00 0.00 0.00 1011.6
20210920181133 0 188 11.0 18.0 0.00 0.00 0.00 1011.7
20210920180631 0 198 9.0 18.0 0.00 0.00 0.00 1011.7
20210920180131 0 168 9.0 18.0 0.00 0.00 0.00 1011.7
20210920175633 0 162 9.0 16.0 0.00 0.00 0.00 1011.9
20210920175136 0 186 6.0 14.0 0.00 0.00 0.00 1011.9
20210920174639 0 186 6.0 10.0 0.00 0.00 0.00 1011.9
20210920174121 0 232 7.0 14.0 0.00 0.00 0.00 1012.0
20210920173613 0 205 7.0 14.0 0.00 0.00 0.00 1012.0
20210920173126 0 163 7.0 12.0 0.00 0.00 0.00 1012.0
20210920172615 0 193 8.0 17.0 0.00 0.00 0.00 1012.0
20210920172115 0 159 7.0 17.0 0.00 0.00 0.00 1012.0
20210920171615 0 178 6.0 12.0 0.00 0.00 0.00 1012.0
20210920171114 0 232 6.0 12.0 0.00 0.00 0.00 1012.1
20210920170612 0 159 6.0 12.0 0.00 0.00 0.00 1012.1
20210920170127 0 251 6.0 13.0 0.00 0.00 0.00 1012.2
20210920165624 0 218 6.0 13.0 0.00 0.00 0.00 1012.3
20210920165112 0 215 7.0 14.0 0.00 0.00 0.00 1012.3
20210920164611 0 201 7.0 14.0 0.00 0.00 0.00 1012.3
20210920164110 0 193 6.0 13.0 0.00 0.00 0.00 1012.3
20210920163610 0 228 5.0 11.0 0.00 0.00 0.00 1012.3
20210920163121 0 207 5.0 12.0 0.00 0.00 0.00 1012.3
20210920162608 0 224 6.0 12.0 0.00 0.00 0.00 1012.2
20210920162107 0 225 7.0 11.0 0.00 0.00 0.00 1012.3
20210920161406 0 228 8.0 13.0 0.00 0.00 0.00 1012.4
20210920160855 0 212 7.0 13.0 0.00 0.00 0.00 1012.4
20210920160406 0 163 6.0 13.0 0.00 0.00 0.00 1012.4
20210920155853 0 192 4.0 12.0 0.00 0.00 0.00 1012.4
20210920155354 0 234 5.0 10.0 0.00 0.00 0.00 1012.4
20210920154851 0 266 6.0 11.0 0.00 0.00 0.00 1012.5
20210920154351 0 247 5.0 11.0 0.00 0.00 0.00 1012.6
20210920153849 0 228 5.0 11.0 0.00 0.00 0.00 1012.6
20210920153350 0 230 5.0 11.0 0.00 0.00 0.00 1012.6
20210920152847 0 247 7.0 12.0 0.00 0.00 0.00 1012.5
20210920152340 0 252 7.0 12.0 0.00 0.00 0.00 1012.5
20210920151849 0 247 7.0 12.0 0.00 0.00 0.00 1012.4
20210920151336 0 238 7.0 12.0 0.00 0.00 0.00 1012.4
20210920150833 0 234 6.0 13.0 0.00 0.00 0.00 1012.3
20210920150337 0 243 7.0 13.0 0.00 0.00 0.00 1012.2
20210920145835 0 228 6.0 12.0 0.00 0.00 0.00 1012.2
20210920145336 0 269 5.0 12.0 0.00 0.00 0.00 1012.1
20210920144832 0 256 5.0 10.0 0.00 0.00 0.00 1012.1
20210920144332 0 218 4.0 9.0 0.00 0.00 0.00 1012.1
20210920143833 0 240 4.0 9.0 0.00 0.00 0.00 1012.0
20210920143342 0 228 3.0 7.0 0.00 0.00 0.00 1011.9
20210920142841 0 261 3.0 8.0 0.00 0.00 0.00 1011.9
20210920142329 0 231 4.0 8.0 0.00 0.00 0.00 1011.9
20210920141840 0 226 4.0 8.0 0.00 0.00 0.00 1011.8
20210920141328 0 272 3.0 6.0 0.00 0.00 0.00 1011.7
20210920140827 0 261 3.0 7.0 0.00 0.00 0.00 1011.7
20210920140327 0 239 4.0 8.0 0.00 0.00 0.00 1011.7
20210920135826 0 238 4.0 8.0 0.00 0.00 0.00 1011.7
20210920135323 0 253 4.0 7.0 0.00 0.00 0.00 1011.7
20210920134824 0 255 3.0 8.0 0.00 0.00 0.00 1011.6
20210920134327 0 253 3.0 8.0 0.00 0.00 0.00 1011.6
20210920133831 0 250 3.0 7.0 0.00 0.00 0.00 1011.5
20210920133321 0 242 3.0 6.0 0.00 0.00 0.00 1011.5
20210920132823 0 248 3.0 7.0 0.00 0.00 0.00 1011.4
20210920132321 0 253 3.0 7.0 0.00 0.00 0.00 1011.3
20210920131823 0 226 3.0 7.0 0.00 0.00 0.00 1011.4
20210920131329 0 229 2.0 4.0 0.00 0.00 0.00 1011.4
20210920130824 0 215 2.0 4.0 0.00 0.00 0.00 1011.3
20210920130320 0 232 2.0 3.0 0.00 0.00 0.00 1011.3
20210920125821 0 234 2.0 3.0 0.00 0.00 0.00 1011.3
20210920125324 0 234 1.0 3.0 0.00 0.00 0.00 1011.2
20210920124826 0 234 1.0 2.0 0.00 0.00 0.00 1011.1
20210920124317 0 234 1.0 3.0 0.00 0.00 0.00 1011.1
20210920123817 0 234 2.0 3.0 0.00 0.00 0.00 1011.0
20210920123317 0 235 2.0 3.0 0.00 0.00 0.00 1011.1
20210920122818 0 235 1.0 3.0 0.00 0.00 0.00 1011.0
20210920122314 0 236 1.0 3.0 0.00 0.00 0.00 1011.0
20210920121814 0 236 2.0 3.0 0.00 0.00 0.00 1011.0
20210920121315 0 236 2.0 3.0 0.00 0.00 0.00 1010.9
20210920120815 0 235 2.0 3.0 0.00 0.00 0.00 1010.8
20210920120309 0 236 2.0 3.0 0.00 0.00 0.00 1010.7
20210920115809 0 237 1.0 3.0 0.00 0.00 0.00 1010.7
20210920115311 0 237 1.0 3.0 0.00 0.00 0.00 1010.7
20210920114807 0 237 2.0 3.0 0.00 0.00 0.00 1010.6
20210920114307 0 237 2.0 4.0 0.00 0.00 0.00 1010.6
20210920113807 0 237 3.0 4.0 0.00 0.00 0.00 1010.6
20210920113308 0 238 3.0 4.0 0.00 0.00 0.00 1010.5
20210920112805 0 234 3.0 6.0 0.00 0.00 0.00 1010.4
20210920112300 0 221 2.0 6.0 0.00 0.00 0.00 1010.4
20210920111801 0 232 2.0 6.0 0.00 0.00 0.00 1010.3
20210920111301 0 218 2.0 4.0 0.00 0.00 0.00 1010.3
20210920110803 0 229 2.0 6.0 0.00 0.00 0.00 1010.3
20210920110304 0 240 2.0 6.0 0.00 0.00 0.00 1010.3
20210920105802 0 242 3.0 6.0 0.00 0.00 0.00 1010.3
20210920105301 0 226 3.0 7.0 0.00 0.00 0.00 1010.3
20210920104759 0 227 3.0 7.0 0.00 0.00 0.00 1010.3
20210920104257 0 217 3.0 6.0 0.00 0.00 0.00 1010.3
20210920103751 0 222 2.0 6.0 0.00 0.00 0.00 1010.3
20210920103245 0 224 2.0 4.0 0.00 0.00 0.00 1010.3
20210920102741 0 199 2.0 6.0 0.00 0.00 0.00 1010.3
20210920102235 0 197 2.0 6.0 0.00 0.00 0.00 1010.2
20210920101727 0 208 3.0 7.0 0.00 0.00 0.00 1010.2
20210920101222 0 197 3.0 7.0 0.00 0.00 0.00 1010.2
20210920100719 0 210 3.0 7.0 0.00 0.00 0.00 1010.2
20210920100216 0 195 3.0 7.0 0.00 0.00 0.00 1010.2
20210920095715 0 194 4.0 7.0 0.00 0.00 0.00 1010.2
20210920095217 0 216 3.0 7.0 0.00 0.00 0.00 1010.2
20210920094715 0 204 2.0 5.0 0.00 0.00 0.00 1010.2
20210920094212 0 220 2.0 4.0 0.00 0.00 0.00 1010.3
20210920093715 0 230 3.0 7.0 0.00 0.00 0.00 1010.2
20210920093210 0 223 3.0 7.0 0.00 0.00 0.00 1010.3
20210920092709 0 222 3.0 7.0 0.00 0.00 0.00 1010.4
20210920092208 0 224 3.0 7.0 0.00 0.00 0.00 1010.3
20210920091708 0 213 3.0 7.0 0.00 0.00 0.00 1010.4
20210920091208 0 217 4.0 7.0 0.00 0.00 0.00 1010.4
20210920090710 0 236 4.0 8.0 0.00 0.00 0.00 1010.4
20210920090209 0 220 4.0 8.0 0.00 0.00 0.00 1010.4
20210920085704 0 202 4.0 9.0 0.00 0.00 0.00 1010.5
20210920085204 0 222 4.0 9.0 0.00 0.00 0.00 1010.5
20210920084936 0 222 4.0 9.0 0.00 0.00 0.00 1010.5
20210920084436 0 200 4.0 9.0 0.00 0.00 0.00 1010.5
20210920083704 0 229 4.0 8.0 0.00 0.00 0.00 1010.5
20210920083205 0 224 4.0 8.0 0.00 0.00 0.00 1010.5
20210920082704 0 207 4.0 9.0 0.00 0.00 0.00 1010.6
20210920082205 0 199 4.0 9.0 0.00 0.00 0.00 1010.7
20210920081704 0 189 4.0 9.0 0.00 0.00 0.00 1010.6
20210920081204 0 193 4.0 9.0 0.00 0.00 0.00 1010.7
20210920080705 0 212 4.0 9.0 0.00 0.00 0.00 1010.7
20210920080204 0 223 4.0 9.0 0.00 0.00 0.00 1010.6
20210920075704 0 232 4.0 8.0 0.00 0.00 0.00 1010.7
20210920075159 0 224 4.0 9.0 0.00 0.00 0.00 1010.7
20210920074657 0 218 4.0 10.0 0.00 0.00 0.00 1010.7
20210920074147 0 202 4.0 10.0 0.00 0.00 0.00 1010.6
20210920073648 0 192 4.0 8.0 0.00 0.00 0.00 1010.7
20210920073147 0 201 4.0 9.0 0.00 0.00 0.00 1010.8
20210920072651 0 205 5.0 9.0 0.00 0.00 0.00 1010.8
20210920072144 0 237 4.0 8.0 0.00 0.00 0.00 1010.9
20210920071643 0 209 4.0 8.0 0.00 0.00 0.00 1010.9
20210920071144 0 212 5.0 10.0 0.00 0.00 0.00 1010.9
20210920070644 0 210 5.0 10.0 0.00 0.00 0.00 1010.9
20210920070140 0 203 4.0 10.0 0.00 0.00 0.00 1010.9
20210920065640 0 222 5.0 10.0 0.00 0.00 0.00 1011.0
20210920065140 0 187 5.0 10.0 0.00 0.00 0.00 1011.0
20210920064642 0 182 4.0 10.0 0.00 0.00 0.00 1011.0
20210920064138 0 218 4.0 10.0 0.00 0.00 0.00 1011.1
20210920063639 0 211 4.0 9.0 0.00 0.00 0.00 1011.1
20210920063137 0 199 4.0 9.0 0.00 0.00 0.00 1011.1
20210920062634 0 180 4.0 9.0 0.00 0.00 0.00 1011.1
20210920062134 0 200 4.0 9.0 0.00 0.00 0.00 1011.2
20210920061638 0 221 4.0 10.0 0.00 0.00 0.00 1011.2
20210920061135 0 180 4.0 10.0 0.00 0.00 0.00 1011.2
20210920060634 0 207 4.0 9.0 0.00 0.00 0.00 1011.2
20210920060136 0 175 4.0 11.0 0.00 0.00 0.00 1011.2
20210920055634 0 186 5.0 11.0 0.00 0.00 0.00 1011.1
20210920055134 0 212 6.0 13.0 0.00 0.00 0.00 1011.1
20210920054636 0 203 6.0 13.0 0.00 0.00 0.00 1011.1
20210920054138 0 226 6.0 12.0 0.00 0.00 0.00 1011.2
20210920053634 0 185 6.0 12.0 0.00 0.00 0.00 1011.2
20210920053130 0 206 6.0 12.0 0.00 0.00 0.00 1011.2
20210920052633 0 230 5.0 11.0 0.00 0.00 0.00 1011.2
20210920052131 0 204 5.0 12.0 0.00 0.00 0.00 1011.2
20210920051631 0 166 6.0 12.0 0.00 0.00 0.00 1011.2